sat.trackr.live / text

‹ back to catalog

STARLINK-3355

NORAD 50808 · 2022-001F

PAYLOAD ACTIVE UNKNOWN

§ Identity

Operator
Country
US
Launch date
2022-01-06
Launch site
AFETR
Launch vehicle
Mass (kg)
RCS (m²)

Purposes: comms

External: N2YO · Heavens-Above · Gunter

§ Orbital elements

Epoch: 2026-09-19T17:53:59.472672Z

Period
94.01 min
Inclination
53.1613°
Eccentricity
0.0001000
Mean motion
15.31704143 rev/d
Perigee alt
470.0 km
Apogee alt
471.4 km
Semi-major
6,848.9 km
B*
3.7008e-5
RAAN
355.2767°
Arg perigee
81.0732°
Mean anomaly
279.0382°
Rev number
26,001

§ Raw data

STARLINK-33551 50808U 22001F   26262.74582723  .00000784  00000+0  37008-4 0  99922 50808  53.1613 355.2767 0001000  81.0732 279.0382 15.31704143260018

JSON: /api/v1/satellites/50808 · /tle

For live sub-satellite position, see the globe view (requires WebGL).

§ Visibility from observer

Set your observer location to see the next 7 days of passes ≥ 10°. The values pass through the URL so the page stays shareable.

No JS? Fill the form by hand. The geolocation button needs JavaScript.